Location: Tyler Bend Campground
(35.9875°N, 92.7606°W)
Time: 10:41:00
(UTC-05:00)

CZ-2C R/B - Visible Passes

Search period start: 06 July 2015 00:00
Search period end: 16 July 2015 00:00
Orbit: 668 x 787 km, 98.1° (Epoch: 05 July)

Date Brightness Start Highest point End Pass type
(mag) Time Alt. Az. Time Alt. Az. Time Alt. Az.
07 Jul 5.1 20:59:58 10° SW 21:02:34 14° W 21:04:55 10° WNW visible
09 Jul 5.2 21:03:02 10° WSW 21:05:19 13° W 21:07:20 10° WNW visible
11 Jul 5.2 21:06:10 10° WSW 21:08:04 12° W 21:09:41 10° WNW visible
13 Jul 5.4 21:09:26 10° WSW 21:10:49 11° W 21:11:53 10° WNW visible
